Edwards AFB North Base, CA

2:55 PM PDT on October 18, 2019 (GMT -0700)
Edwards AFB North Base

Weather History for K9L2 - September, 2019

Change the Weather History Date:

Monday, September 16, 2019

  Actual Average (KEDW) Record (KEDW)
Temperature  
Mean Temperature 74 °F -  
Max Temperature 86 °F 89 °F 104 °F (2000)
Min Temperature 63 °F 56 °F 48 °F (2006)
Cooling Degree Days 10    
Growing Degree Days 24 (Base 50)    
Moisture  
Dew Point 34 °F    
Average Humidity 24    
Maximum Humidity 50    
Minimum Humidity 11    
Precipitation  
Precipitation 0.00 in - - ()
Sea Level Pressure  
Sea Level Pressure 29.83 in    
Wind  
Wind Speed 10 mph ()    
Max Wind Speed 25 mph    
Max Gust Speed 31 mph    
Visibility 8.5 miles    
Events      
Averages and records for this station are not official NWS values.
T = Trace of Precipitation, MM = Missing Value Source: Averaged Metar Reports

Daily Weather History Graph

Daily Weather History Graph

Search for Another Location

Airport or City:

Astronomy

Sep. 16, 2019 Rise Set
Actual Time 6:34 AM PDT 6:57 PM PDT
Civil Twilight 6:09 AM PDT 7:22 PM PDT
Nautical Twilight 5:39 AM PDT 7:52 PM PDT
Astronomical Twilight 5:09 AM PDT 8:22 PM PDT
Moon 8:38 PM PDT (9/16) 8:42 AM PDT (9/16)
Length of Visible Light 13h 12m
Length of Day
12h 22m
Waning Gibbous, 94% of the Moon is Illuminated
Sep 16
Waning Gibbous
Sep 21
Last Quarter
Sep 28
New
Oct 5
First Quarter
Oct 13
Full

Hourly Weather History & Observations

Time (PDT) Temp. Dew Point Humidity Pressure Visibility Wind Dir Wind Speed Gust Speed Precip Events Conditions
12:58 AM 72.1 °F 39.9 °F 31% 29.84 in 9.0 mi Calm Calm - N/A   Partly Cloudy
1:58 AM 72.5 °F 37.8 °F 28% 29.83 in 9.0 mi SW 11.5 mph - N/A   Clear
2:58 AM 67.6 °F 37.4 °F 33% 29.82 in 9.0 mi SW 4.6 mph - N/A   Clear
3:58 AM 68.0 °F 33.8 °F 28% 29.83 in 9.0 mi West 8.1 mph - N/A   Clear
4:58 AM 64.2 °F 32.0 °F 30% 29.83 in 10.0 mi Calm Calm - N/A   Clear
5:58 AM 69.8 °F 29.1 °F 22% 29.83 in 9.0 mi SW 8.1 mph - N/A   Partly Cloudy
6:58 AM 64.2 °F 31.3 °F 29% 29.86 in 8.0 mi ESE 5.8 mph - N/A   Clear
7:58 AM 68.2 °F 31.1 °F 25% 29.87 in 8.0 mi South 5.8 mph - N/A   Clear
8:58 AM 78.8 °F 30.7 °F 17% 29.86 in 8.0 mi SSW 12.7 mph 19.6 mph N/A   Clear
9:58 AM 81.1 °F 29.7 °F 15% 29.86 in 8.0 mi SW 16.1 mph - N/A   Clear
10:58 AM 84.2 °F 26.4 °F 12% 29.85 in 8.0 mi SW 23.0 mph 29.9 mph N/A   Partly Cloudy
11:58 AM 85.3 °F 26.4 °F 12% 29.84 in 9.0 mi SSW 20.7 mph 29.9 mph N/A   Clear
12:58 PM 84.7 °F 26.4 °F 12% 29.84 in 8.0 mi SSW 21.9 mph 27.6 mph N/A   Scattered Clouds
1:58 PM 83.7 °F 23.5 °F 11% 29.83 in 9.0 mi SSW 20.7 mph 29.9 mph N/A   Scattered Clouds
2:58 PM 84.0 °F 26.8 °F 12% 29.81 in 8.0 mi SSW 18.4 mph 28.8 mph N/A   Mostly Cloudy
3:58 PM 83.3 °F 32.0 °F 16% 29.80 in 9.0 mi SSW 25.3 mph - N/A   Partly Cloudy
4:58 PM 83.5 °F 36.3 °F 19% 29.79 in 6.0 mi South 23.0 mph 31.1 mph N/A   Haze
5:13 PM 82.4 °F 37.4 °F 20% 29.80 in 8.0 mi SSW 23.0 mph 28.8 mph N/A   Clear
5:58 PM 81.3 °F 36.0 °F 20% 29.80 in 7.0 mi SSW 19.6 mph - N/A   Clear
6:58 PM 76.5 °F 33.6 °F 21% 29.80 in 7.0 mi WSW 13.8 mph 21.9 mph N/A   Clear
7:58 PM 72.0 °F 38.1 °F 29% 29.82 in 9.0 mi WSW 15.0 mph - N/A   Clear
8:58 PM 69.8 °F 42.3 °F 37% 29.84 in 9.0 mi WSW 10.4 mph - N/A   Clear
9:58 PM 66.4 °F 39.6 °F 37% 29.86 in 10.0 mi SW 6.9 mph - N/A   Clear
10:58 PM 66.0 °F 42.3 °F 42% 29.85 in 9.0 mi SW 12.7 mph - N/A   Clear
11:58 PM 63.7 °F 44.8 °F 50% 29.86 in 9.0 mi SW 10.4 mph - N/A   Clear